| time (UTC) | temp F | wind direction | speed MPH | gust MPH | rain 1hr in | rain 24hr in | rain mn in | humidity % | barometer mb |
| 20260505023040 | 68 | 229 | 7.0 | 12.0 | 0.00 | 0.00 | 0.00 | 55 | 1002.7 |
| 20260505021601 | 68 | 205 | 7.0 | 11.0 | 0.00 | 0.00 | 0.00 | 54 | 1002.7 |
| 20260505020047 | 69 | 216 | 7.0 | 13.0 | 0.00 | 0.00 | 0.00 | 52 | 1002.7 |
| 20260505014540 | 69 | 195 | 7.0 | 11.0 | 0.00 | 0.00 | 0.00 | 51 | 1002.4 |
| 20260505013038 | 70 | 193 | 8.0 | 12.0 | 0.00 | 0.00 | 0.00 | 50 | 1002.2 |
| 20260505011548 | 70 | 200 | 7.0 | 13.0 | 0.00 | 0.00 | 0.00 | 49 | 1002.2 |
| 20260505010039 | 70 | 234 | 6.0 | 13.0 | 0.00 | 0.00 | 0.00 | 49 | 1002.1 |
| 20260505004545 | 71 | 226 | 9.0 | 13.0 | 0.00 | 0.00 | 0.00 | 47 | 1002.1 |
| 20260505003039 | 72 | 206 | 8.0 | 14.0 | 0.00 | 0.00 | 0.00 | 47 | 1002.1 |
| 20260505001538 | 72 | 254 | 8.0 | 15.0 | 0.00 | 0.00 | 0.00 | 47 | 1002.1 |
| 20260505000040 | 73 | 174 | 13.0 | 19.0 | 0.00 | 0.00 | 0.00 | 46 | 1001.7 |
| 20260504234537 | 74 | 226 | 8.0 | 23.0 | 0.00 | 0.00 | 0.00 | 50 | 1001.7 |
| 20260504233055 | 73 | 235 | 10.0 | 22.0 | 0.00 | 0.00 | 0.00 | 51 | 1002.1 |
| 20260504231541 | 73 | 243 | 11.0 | 21.0 | 0.00 | 0.00 | 0.00 | 53 | 1002.3 |
| 20260504230043 | 72 | 228 | 11.0 | 20.0 | 0.00 | 0.00 | 0.00 | 55 | 1002.6 |
| 20260504224538 | 72 | 233 | 9.0 | 18.0 | 0.00 | 0.00 | 0.00 | 58 | 1002.8 |
| 20260504223040 | 72 | 201 | 12.0 | 22.0 | 0.00 | 0.00 | 0.00 | 55 | 1003.0 |
| 20260504221547 | 72 | 219 | 9.0 | 17.0 | 0.00 | 0.00 | 0.00 | 56 | 1003.1 |
| 20260504214542 | 74 | 249 | 14.0 | 24.0 | 0.00 | 0.00 | 0.00 | 48 | 1003.3 |
| 20260504213038 | 72 | 237 | 10.0 | 20.0 | 0.00 | 0.00 | 0.00 | 50 | 1003.5 |
| 20260504211537 | 73 | 207 | 10.0 | 31.0 | 0.00 | 0.00 | 0.00 | 47 | 1003.5 |
| 20260504210044 | 75 | 245 | 14.0 | 25.0 | 0.00 | 0.00 | 0.00 | 45 | 1003.4 |
| 20260504204557 | 75 | 242 | 16.0 | 24.0 | 0.00 | 0.00 | 0.00 | 41 | 1003.3 |
| 20260504203042 | 75 | 228 | 14.0 | 27.0 | 0.00 | 0.00 | 0.00 | 45 | 1003.2 |
| 20260504201539 | 76 | 241 | 12.0 | 23.0 | 0.00 | 0.00 | 0.00 | 45 | 1003.4 |
| 20260504200043 | 75 | 198 | 13.0 | 22.0 | 0.00 | 0.00 | 0.00 | 44 | 1003.4 |
| 20260504194541 | 75 | 223 | 13.0 | 22.0 | 0.00 | 0.16 | 0.00 | 44 | 1003.6 |
| 20260504193042 | 74 | 257 | 14.0 | 20.0 | 0.00 | 0.16 | 0.00 | 45 | 1003.9 |
| 20260504191541 | 75 | 269 | 12.0 | 33.0 | 0.00 | 0.16 | 0.00 | 44 | 1003.7 |
| 20260504190040 | 76 | 210 | 13.0 | 28.0 | 0.00 | 0.16 | 0.00 | 45 | 1003.9 |
| 20260504184539 | 75 | 271 | 13.0 | 29.0 | 0.00 | 0.16 | 0.00 | 46 | 1003.8 |
| 20260504183038 | 75 | 239 | 12.0 | 23.0 | 0.00 | 0.16 | 0.00 | 46 | 1003.9 |
| 20260504181542 | 75 | 225 | 12.0 | 22.0 | 0.00 | 0.16 | 0.00 | 47 | 1003.9 |
| 20260504180041 | 75 | 211 | 11.0 | 24.0 | 0.00 | 0.16 | 0.00 | 49 | 1004.0 |
| 20260504174540 | 74 | 232 | 15.0 | 22.0 | 0.00 | 0.16 | 0.00 | 48 | 1003.9 |
| 20260504173039 | 73 | 200 | 17.0 | 25.0 | 0.00 | 0.16 | 0.00 | 50 | 1003.9 |
| 20260504171539 | 73 | 210 | 16.0 | 27.0 | 0.00 | 0.16 | 0.00 | 50 | 1004.1 |
| 20260504081546 | 51 | 190 | 6.0 | 10.0 | 0.00 | 0.16 | 0.00 | 73 | 1007.3 |
| 20260504044538 | 52 | 204 | 4.0 | 10.0 | 0.00 | 0.16 | 0.00 | 70 | 1009.0 |
| 20260504043042 | 52 | 210 | 5.0 | 10.0 | 0.00 | 0.16 | 0.00 | 71 | 1009.2 |
| 20260504041538 | 51 | 193 | 3.0 | 6.0 | 0.00 | 0.16 | 0.00 | 72 | 1009.4 |
| 20260504040038 | 51 | 178 | 3.0 | 6.0 | 0.00 | 0.16 | 0.00 | 73 | 1009.5 |
| 20260504034541 | 51 | 164 | 2.0 | 4.0 | 0.00 | 0.16 | 0.16 | 73 | 1009.6 |
| 20260504033040 | 51 | 165 | 3.0 | 6.0 | 0.00 | 0.16 | 0.16 | 73 | 1009.7 |
| 20260504031540 | 52 | 159 | 3.0 | 6.0 | 0.00 | 0.16 | 0.16 | 72 | 1009.9 |
| 20260504030039 | 52 | 155 | 4.0 | 6.0 | 0.00 | 0.16 | 0.16 | 72 | 1009.9 |
| 20260504024545 | 53 | 141 | 4.0 | 7.0 | 0.00 | 0.16 | 0.16 | 70 | 1010.0 |